AAL29 KCLT-KSAV

Flight info

Callsign AAL29
Flight time 0h 39m
Altitude 24000
Route ICONS5 NOOKS CAE CANTR PLZZZ
Aircraft A320/M-SDE3FGHIRWY/LB1

Departure

Time 2026-05-05 17:40
Airport Charlotte Douglas International Airport (KCLT)

Arrival

Time 2026-05-05 18:19
Airport Savannah Hilton Head International Airport (KSAV)
Time Latitude Longitude Altitude Speed Heading
2026-05-05 16:36 35.22016 -80.93972 733 ft 0 kts 356°
2026-05-05 17:28 35.21993 -80.93971 732 ft 4 kts
2026-05-05 17:28 35.21967 -80.93974 732 ft 4 kts 17°
2026-05-05 17:28 35.21945 -80.93989 732 ft 4 kts 61°
2026-05-05 17:29 35.21941 -80.94003 732 ft 1 kts 85°
2026-05-05 17:29 35.21941 -80.94005 731 ft 0 kts 85°
2026-05-05 17:33 35.21942 -80.93986 732 ft 4 kts 85°
2026-05-05 17:33 35.21944 -80.93955 732 ft 3 kts 85°
2026-05-05 17:33 35.21945 -80.93945 732 ft 0 kts 85°
2026-05-05 17:34 35.21945 -80.93942 732 ft 3 kts 85°
2026-05-05 17:34 35.21953 -80.93876 732 ft 8 kts 68°
2026-05-05 17:34 35.21986 -80.93823 732 ft 8 kts 46°
2026-05-05 17:35 35.22030 -80.93801 731 ft 7 kts
2026-05-05 17:35 35.22073 -80.93802 732 ft 6 kts 355°
2026-05-05 17:35 35.22112 -80.93806 732 ft 5 kts 355°
2026-05-05 17:35 35.22147 -80.93810 733 ft 5 kts 355°
2026-05-05 17:36 35.22186 -80.93796 732 ft 8 kts 52°
2026-05-05 17:36 35.22202 -80.93742 733 ft 6 kts 44°
2026-05-05 17:36 35.22248 -80.93733 733 ft 10 kts 357°
2026-05-05 17:36 35.22306 -80.93738 733 ft 7 kts 356°
2026-05-05 17:37 35.22350 -80.93742 733 ft 2 kts 356°
2026-05-05 17:37 35.22356 -80.93742 733 ft 1 kts 356°
2026-05-05 17:37 35.22369 -80.93743 733 ft 2 kts 356°
2026-05-05 17:37 35.22394 -80.93737 732 ft 3 kts 44°
2026-05-05 17:38 35.22399 -80.93712 734 ft 7 kts 80°
2026-05-05 17:38 35.22402 -80.93664 735 ft 4 kts 86°
2026-05-05 17:38 35.22404 -80.93624 736 ft 6 kts 86°
2026-05-05 17:38 35.22387 -80.93611 736 ft 3 kts 172°
2026-05-05 17:39 35.22378 -80.93610 736 ft 0 kts 176°
2026-05-05 17:39 35.22271 -80.93602 736 ft 52 kts 176°
2026-05-05 17:39 35.21656 -80.93548 736 ft 122 kts 176°
2026-05-05 17:39 35.20625 -80.93456 872 ft 164 kts 177°
2026-05-05 17:40 35.19473 -80.93331 1562 ft 171 kts 178°
2026-05-05 17:40 35.18279 -80.93191 2434 ft 175 kts 177°
2026-05-05 17:40 35.17019 -80.93045 3091 ft 192 kts 177°
2026-05-05 17:40 35.15620 -80.92893 3505 ft 211 kts 177°
2026-05-05 17:41 35.14060 -80.92726 4017 ft 230 kts 176°
2026-05-05 17:41 35.12408 -80.92715 4679 ft 248 kts 184°
2026-05-05 17:41 35.10671 -80.92844 5552 ft 257 kts 185°
2026-05-05 17:41 35.08875 -80.93013 6551 ft 261 kts 186°
2026-05-05 17:42 35.07051 -80.93195 7550 ft 265 kts 186°
2026-05-05 17:42 35.05197 -80.93378 8522 ft 268 kts 186°
2026-05-05 17:42 35.03323 -80.93552 9469 ft 272 kts 186°
2026-05-05 17:42 35.01422 -80.93720 10346 ft 279 kts 186°
2026-05-05 17:43 34.99403 -80.93906 10741 ft 302 kts 186°
2026-05-05 17:43 34.97265 -80.94107 11422 ft 312 kts 186°
2026-05-05 17:43 34.95078 -80.94307 12267 ft 317 kts 186°
2026-05-05 17:43 34.92863 -80.94505 13110 ft 321 kts 186°
2026-05-05 17:44 34.90614 -80.94705 13878 ft 326 kts 186°
2026-05-05 17:44 34.88331 -80.94910 14614 ft 332 kts 186°
2026-05-05 17:44 34.86008 -80.95122 15343 ft 337 kts 187°
2026-05-05 17:44 34.83655 -80.95332 16051 ft 342 kts 187°
2026-05-05 17:45 34.81265 -80.95544 16729 ft 347 kts 187°
2026-05-05 17:45 34.78838 -80.95760 17386 ft 352 kts 187°
2026-05-05 17:45 34.76376 -80.95981 18037 ft 357 kts 187°
2026-05-05 17:45 34.73886 -80.96203 18667 ft 362 kts 187°
2026-05-05 17:46 34.71358 -80.96431 19274 ft 367 kts 187°
2026-05-05 17:46 34.68795 -80.96665 19859 ft 372 kts 187°
2026-05-05 17:46 34.66198 -80.96900 20451 ft 377 kts 187°
2026-05-05 17:46 34.63565 -80.97134 21028 ft 382 kts 187°
2026-05-05 17:47 34.60900 -80.97368 21600 ft 386 kts 187°
2026-05-05 17:47 34.58207 -80.97613 22154 ft 391 kts 188°
2026-05-05 17:47 34.55482 -80.97869 22701 ft 395 kts 188°
2026-05-05 17:47 34.52724 -80.98132 23226 ft 400 kts 188°
2026-05-05 17:48 34.49935 -80.98399 23743 ft 404 kts 188°
2026-05-05 17:48 34.47118 -80.98668 24031 ft 408 kts 188°
2026-05-05 17:48 34.44304 -80.98932 24091 ft 398 kts 188°
2026-05-05 17:48 34.41594 -80.99176 24099 ft 386 kts 188°
2026-05-05 17:49 34.38925 -80.99417 24099 ft 383 kts 188°
2026-05-05 17:49 34.36268 -80.99663 24104 ft 382 kts 188°
2026-05-05 17:49 34.33617 -80.99912 24100 ft 382 kts 188°
2026-05-05 17:49 34.30970 -81.00162 24101 ft 382 kts 188°
2026-05-05 17:50 34.28322 -81.00412 24100 ft 382 kts 188°
2026-05-05 17:50 34.25704 -81.00656 24100 ft 382 kts 188°
2026-05-05 17:50 34.23056 -81.00901 24100 ft 382 kts 188°
2026-05-05 17:50 34.20411 -81.01146 24100 ft 382 kts 188°
2026-05-05 17:51 34.17758 -81.01393 24099 ft 382 kts 188°
2026-05-05 17:51 34.15115 -81.01639 24100 ft 381 kts 188°
2026-05-05 17:51 34.12471 -81.01886 24099 ft 381 kts 188°
2026-05-05 17:51 34.09827 -81.02133 24099 ft 381 kts 188°
2026-05-05 17:52 34.07184 -81.02383 24099 ft 381 kts 188°
2026-05-05 17:52 34.04537 -81.02632 24101 ft 381 kts 188°
2026-05-05 17:52 34.02786 -81.02796 24100 ft 381 kts 188°
2026-05-05 17:52 34.00139 -81.03043 24102 ft 381 kts 188°
2026-05-05 17:53 33.97497 -81.03303 24114 ft 381 kts 190°
2026-05-05 17:53 33.94864 -81.03671 24112 ft 380 kts 192°
2026-05-05 17:53 33.92245 -81.04125 24110 ft 380 kts 193°
2026-05-05 17:53 33.89632 -81.04619 24108 ft 380 kts 193°
2026-05-05 17:54 33.87017 -81.05119 24108 ft 381 kts 193°
2026-05-05 17:54 33.84397 -81.05604 24107 ft 381 kts 192°
2026-05-05 17:54 33.81767 -81.06035 24107 ft 382 kts 191°
2026-05-05 17:54 33.79133 -81.06419 24107 ft 382 kts 191°
2026-05-05 17:55 33.76490 -81.06779 24106 ft 382 kts 191°
2026-05-05 17:55 33.73851 -81.07132 24106 ft 382 kts 191°
2026-05-05 17:55 33.71209 -81.07491 24106 ft 382 kts 191°
2026-05-05 17:55 33.68574 -81.07860 24105 ft 382 kts 191°
2026-05-05 17:56 33.65935 -81.08238 24102 ft 382 kts 191°
2026-05-05 17:56 33.63298 -81.08620 24104 ft 382 kts 191°
2026-05-05 17:56 33.60661 -81.09007 24097 ft 382 kts 191°
2026-05-05 17:56 33.58024 -81.09394 24100 ft 382 kts 191°
2026-05-05 17:57 33.55379 -81.09779 24097 ft 382 kts 191°
2026-05-05 17:57 33.52739 -81.10161 24097 ft 382 kts 191°
2026-05-05 17:57 33.50095 -81.10542 24099 ft 383 kts 191°
2026-05-05 17:57 33.47450 -81.10921 24104 ft 382 kts 191°
2026-05-05 17:58 33.44842 -81.11293 24126 ft 382 kts 191°
2026-05-05 17:58 33.42196 -81.11674 24123 ft 383 kts 191°
2026-05-05 17:58 33.39551 -81.12053 24121 ft 383 kts 191°
2026-05-05 17:58 33.36906 -81.12429 24119 ft 383 kts 191°
2026-05-05 17:59 33.34262 -81.12813 24137 ft 382 kts 191°
2026-05-05 17:59 33.31618 -81.13206 24131 ft 383 kts 192°
2026-05-05 17:59 33.28978 -81.13603 24126 ft 383 kts 192°
2026-05-05 17:59 33.26336 -81.14000 24122 ft 383 kts 192°
2026-05-05 18:00 33.23693 -81.14395 24117 ft 382 kts 192°
2026-05-05 18:00 33.21074 -81.14782 23876 ft 376 kts 192°
2026-05-05 18:00 33.18494 -81.15160 23625 ft 372 kts 192°
2026-05-05 18:00 33.15940 -81.15538 23247 ft 368 kts 192°
2026-05-05 18:01 33.13406 -81.15913 22765 ft 366 kts 191°
2026-05-05 18:01 33.10887 -81.16285 22285 ft 364 kts 191°
2026-05-05 18:01 33.08373 -81.16657 21797 ft 363 kts 191°
2026-05-05 18:01 33.05869 -81.17026 21324 ft 362 kts 191°
2026-05-05 18:02 33.03377 -81.17390 20856 ft 360 kts 191°
2026-05-05 18:02 33.00901 -81.17751 20383 ft 358 kts 191°
2026-05-05 18:02 32.98433 -81.18114 19929 ft 356 kts 191°
2026-05-05 18:02 32.95977 -81.18477 19471 ft 354 kts 191°
2026-05-05 18:03 32.93539 -81.18834 19017 ft 352 kts 191°
2026-05-05 18:03 32.91114 -81.19187 18569 ft 350 kts 190°
2026-05-05 18:03 32.88695 -81.19540 18043 ft 351 kts 190°
2026-05-05 18:03 32.86309 -81.19891 17581 ft 349 kts 190°
2026-05-05 18:04 32.83904 -81.20243 17148 ft 347 kts 190°
2026-05-05 18:04 32.81520 -81.20591 16725 ft 344 kts 189°
2026-05-05 18:04 32.79122 -81.20942 16288 ft 342 kts 189°
2026-05-05 18:04 32.76800 -81.21280 15874 ft 340 kts 189°
2026-05-05 18:05 32.74463 -81.21618 15458 ft 337 kts 189°
2026-05-05 18:05 32.72154 -81.22173 15014 ft 332 kts 200°
2026-05-05 18:05 32.69996 -81.23030 14595 ft 330 kts 200°
2026-05-05 18:05 32.67831 -81.23891 14174 ft 328 kts 200°
2026-05-05 18:06 32.65677 -81.24744 13763 ft 325 kts 200°
2026-05-05 18:06 32.64232 -81.25314 13476 ft 324 kts 199°
2026-05-05 18:06 32.61415 -81.26422 12897 ft 321 kts 199°
2026-05-05 18:06 32.59306 -81.27254 12470 ft 318 kts 199°
2026-05-05 18:07 32.57212 -81.28079 12042 ft 315 kts 199°
2026-05-05 18:07 32.55139 -81.28896 11607 ft 313 kts 199°
2026-05-05 18:07 32.53091 -81.29702 11333 ft 305 kts 198°
2026-05-05 18:07 32.51120 -81.30477 11082 ft 292 kts 198°
2026-05-05 18:08 32.49212 -81.31229 10451 ft 287 kts 198°
2026-05-05 18:08 32.47343 -81.31967 9938 ft 278 kts 198°
2026-05-05 18:08 32.45544 -81.32677 9524 ft 267 kts 198°
2026-05-05 18:08 32.43801 -81.33363 9130 ft 263 kts 197°
2026-05-05 18:09 32.42062 -81.34046 8729 ft 263 kts 197°
2026-05-05 18:09 32.40323 -81.34728 8308 ft 263 kts 197°
2026-05-05 18:09 32.38583 -81.35412 7899 ft 263 kts 197°
2026-05-05 18:09 32.36846 -81.36092 7474 ft 263 kts 197°
2026-05-05 18:10 32.35108 -81.36772 7051 ft 262 kts 197°
2026-05-05 18:10 32.33373 -81.37451 6610 ft 263 kts 197°
2026-05-05 18:10 32.31638 -81.38130 6155 ft 263 kts 197°
2026-05-05 18:10 32.29903 -81.38808 5701 ft 264 kts 197°
2026-05-05 18:11 32.28168 -81.39481 5251 ft 262 kts 198°
2026-05-05 18:11 32.26436 -81.40159 4793 ft 262 kts 197°
2026-05-05 18:11 32.24743 -81.40824 4662 ft 248 kts 197°
2026-05-05 18:11 32.23176 -81.41439 4599 ft 233 kts 197°
2026-05-05 18:12 32.21678 -81.42024 4513 ft 220 kts 197°
2026-05-05 18:12 32.20264 -81.42576 4424 ft 209 kts 197°
2026-05-05 18:12 32.18914 -81.43103 4328 ft 200 kts 198°
2026-05-05 18:12 32.17623 -81.43610 4232 ft 192 kts 197°
2026-05-05 18:13 32.16395 -81.44092 4187 ft 180 kts 197°
2026-05-05 18:13 32.15233 -81.44466 4072 ft 167 kts 182°
2026-05-05 18:13 32.14115 -81.44215 3776 ft 168 kts 152°
2026-05-05 18:13 32.13285 -81.43267 3529 ft 168 kts 120°
2026-05-05 18:14 32.13034 -81.41962 3324 ft 162 kts 91°
2026-05-05 18:14 32.13029 -81.40656 3104 ft 154 kts 94°
2026-05-05 18:14 32.13018 -81.39406 2913 ft 154 kts 93°
2026-05-05 18:14 32.13010 -81.38157 2718 ft 149 kts 93°
2026-05-05 18:15 32.13000 -81.36961 2509 ft 145 kts 93°
2026-05-05 18:15 32.12989 -81.35780 2294 ft 141 kts 93°
2026-05-05 18:15 32.12988 -81.34635 2060 ft 138 kts 92°
2026-05-05 18:15 32.12991 -81.33511 1874 ft 136 kts 92°
2026-05-05 18:16 32.13007 -81.32391 1705 ft 137 kts 92°
2026-05-05 18:16 32.12989 -81.31283 1525 ft 132 kts 94°
2026-05-05 18:16 32.12964 -81.30209 1503 ft 131 kts 93°
2026-05-05 18:16 32.12947 -81.29137 1342 ft 130 kts 92°
2026-05-05 18:17 32.12932 -81.28070 1082 ft 130 kts 92°
2026-05-05 18:17 32.12929 -81.27015 878 ft 128 kts 91°
2026-05-05 18:17 32.12930 -81.25962 718 ft 128 kts 92°
2026-05-05 18:17 32.12895 -81.24907 590 ft 129 kts 93°
2026-05-05 18:18 32.12901 -81.23851 407 ft 129 kts 90°
2026-05-05 18:18 32.12893 -81.22788 260 ft 130 kts 92°
2026-05-05 18:18 32.12874 -81.21723 59 ft 129 kts 92°
2026-05-05 18:18 32.12865 -81.20785 43 ft 93 kts 90°
2026-05-05 18:19 32.12860 -81.20227 43 ft 46 kts 91°
2026-05-05 18:19 32.12860 -81.19984 39 ft 23 kts 93°
2026-05-05 18:19 32.12858 -81.19904 42 ft 0 kts 92°
2026-05-05 18:19 32.12857 -81.19890 43 ft 9 kts 92°
2026-05-05 18:20 32.12880 -81.19823 43 ft 8 kts 32°
2026-05-05 18:20 32.12921 -81.19815 47 ft 3 kts
2026-05-05 18:20 32.12965 -81.19815 50 ft 7 kts
2026-05-05 18:20 32.12998 -81.19815 51 ft 3 kts
2026-05-05 18:21 32.13020 -81.19815 52 ft 4 kts 359°
2026-05-05 18:21 32.13066 -81.19816 49 ft 9 kts 359°
2026-05-05 18:21 32.13133 -81.19816 51 ft 9 kts 359°
2026-05-05 18:21 32.13193 -81.19817 53 ft 8 kts 359°
2026-05-05 18:22 32.13249 -81.19818 51 ft 9 kts 359°
2026-05-05 18:22 32.13317 -81.19818 53 ft 10 kts 360°
2026-05-05 18:22 32.13382 -81.19819 53 ft 9 kts 360°
2026-05-05 18:22 32.13441 -81.19819 50 ft 8 kts 360°
2026-05-05 18:23 32.13495 -81.19819 52 ft 7 kts 359°
2026-05-05 18:23 32.13543 -81.19829 53 ft 7 kts 326°
2026-05-05 18:23 32.13555 -81.19877 53 ft 7 kts 274°
2026-05-05 18:23 32.13558 -81.19935 52 ft 8 kts 273°
2026-05-05 18:24 32.13562 -81.20006 50 ft 9 kts 279°
2026-05-05 18:24 32.13571 -81.20073 50 ft 7 kts 272°
2026-05-05 18:24 32.13572 -81.20121 53 ft 4 kts 270°
2026-05-05 18:24 32.13571 -81.20161 53 ft 6 kts 269°
2026-05-05 18:25 32.13571 -81.20207 53 ft 5 kts 270°
2026-05-05 18:25 32.13571 -81.20239 54 ft 9 kts 270°
2026-05-05 18:25 32.13570 -81.20343 54 ft 9 kts 270°
2026-05-05 18:25 32.13570 -81.20412 54 ft 8 kts 270°
2026-05-05 18:26 32.13585 -81.20472 52 ft 7 kts 304°
2026-05-05 18:26 32.13614 -81.20513 51 ft 6 kts 316°
2026-05-05 18:26 32.13643 -81.20545 52 ft 6 kts 316°
2026-05-05 18:26 32.13665 -81.20580 54 ft 5 kts 295°
2026-05-05 18:27 32.13672 -81.20620 52 ft 5 kts 274°
2026-05-05 18:27 32.13673 -81.20636 52 ft 0 kts 274°
2026-05-05 18:27 32.13673 -81.20657 54 ft 7 kts 271°
2026-05-05 18:28 32.13674 -81.20715 54 ft 5 kts 271°
2026-05-05 18:28 32.13673 -81.20753 54 ft 3 kts 257°
2026-05-05 18:28 32.13656 -81.20759 54 ft 2 kts 195°
2026-05-05 18:29 32.13641 -81.20761 54 ft 2 kts 182°
2026-05-05 18:29 32.13628 -81.20762 54 ft 2 kts 180°
2026-05-05 18:29 32.13617 -81.20762 51 ft 1 kts 180°
2026-05-05 18:29 32.13609 -81.20762 54 ft 1 kts 180°
2026-05-05 18:30 32.13607 -81.20762 54 ft 1 kts 180°